2021-08-26 00:02:49 r, 19.49m,0000000001Hz,0000342835c,0000000.744s, 022.5C,00002191
2021-08-26 00:12:52 r, 18.96m,0000000002Hz,0000209378c,0000000.454s, 022.8C,00002191
2021-08-26 00:22:50 r, 19.52m,0000000001Hz,0000351331c,0000000.762s, 023.2C,00002191
2021-08-26 00:32:49 r, 19.38m,0000000001Hz,0000310137c,0000000.673s, 023.2C,00002191
2021-08-26 00:42:52 r, 19.27m,0000000002Hz,0000279090c,0000000.606s, 023.2C,00002191
2021-08-26 00:52:50 r, 19.28m,0000000002Hz,0000282224c,0000000.612s, 022.8C,00002191
2021-08-26 01:02:49 r, 19.23m,0000000001Hz,0000268555c,0000000.583s, 022.5C,00002191
2021-08-26 01:12:50 r, 19.21m,0000000002Hz,0000265943c,0000000.577s, 022.2C,00002191
2021-08-26 01:22:51 r, 19.06m,0000000002Hz,0000229409c,0000000.498s, 021.5C,00002191
2021-08-26 01:32:50 r, 19.01m,0000000002Hz,0000218797c,0000000.475s, 021.2C,00002191
2021-08-26 01:42:51 r, 18.21m,0000000004Hz,0000105370c,0000000.229s, 020.9C,00002191
2021-08-26 01:52:50 r, 18.19m,0000000005Hz,0000103840c,0000000.225s, 020.9C,00002191
2021-08-26 02:02:49 r, 18.69m,0000000003Hz,0000164036c,0000000.356s, 020.9C,00002191
2021-08-26 02:12:50 r, 18.91m,0000000002Hz,0000200967c,0000000.436s, 020.9C,00002191
2021-08-26 02:22:52 r, 18.64m,0000000003Hz,0000156929c,0000000.341s, 020.6C,00002191
2021-08-26 02:32:49 r, 18.94m,0000000003Hz,0000207485c,0000000.450s, 020.6C,00002191
2021-08-26 02:42:52 r, 18.84m,0000000002Hz,0000188496c,0000000.409s, 020.6C,00002191
2021-08-26 02:52:50 r, 18.86m,0000000003Hz,0000192066c,0000000.417s, 020.3C,00002191
2021-08-26 03:02:49 r, 18.66m,0000000003Hz,0000160141c,0000000.348s, 020.3C,00002191
2021-08-26 03:12:50 r, 18.78m,0000000003Hz,0000178502c,0000000.387s, 020.3C,00002191
2021-08-26 03:22:51 r, 18.41m,0000000004Hz,0000126212c,0000000.274s, 020.3C,00002191
2021-08-26 03:32:49 r, 18.58m,0000000003Hz,0000148314c,0000000.322s, 020.3C,00002191
2021-08-26 03:42:51 r, 18.31m,0000000004Hz,0000115782c,0000000.251s, 020.3C,00002191
2021-08-26 03:52:50 r, 18.46m,0000000004Hz,0000132153c,0000000.287s, 020.6C,00002191
2021-08-26 04:02:49 r, 18.26m,0000000004Hz,0000110752c,0000000.240s, 020.9C,00002191
2021-08-26 04:12:50 r, 18.41m,0000000004Hz,0000127375c,0000000.276s, 020.9C,00002191
2021-08-26 04:22:52 r, 18.43m,0000000003Hz,0000129004c,0000000.280s, 020.9C,00002191
2021-08-26 04:32:49 r, 18.41m,0000000003Hz,0000126234c,0000000.274s, 020.9C,00002191
2021-08-26 04:42:52 r, 18.33m,0000000004Hz,0000118005c,0000000.256s, 020.6C,00002191
2021-08-26 04:52:50 r, 18.35m,0000000004Hz,0000120213c,0000000.261s, 020.3C,00002191
2021-08-26 05:02:49 r, 17.99m,0000000006Hz,0000086400c,0000000.188s, 019.9C,00002191
2021-08-26 05:12:52 r, 17.94m,0000000005Hz,0000082329c,0000000.179s, 019.9C,00002191
2021-08-26 05:22:51 r, 17.87m,0000000006Hz,0000077232c,0000000.168s, 019.9C,00002191
2021-08-26 05:32:49 r, 17.50m,0000000008Hz,0000054798c,0000000.119s, 019.9C,00002191
2021-08-26 05:42:50 r, 16.59m,0000000019Hz,0000023766c,0000000.052s, 019.6C,00002191
2021-08-26 05:52:51 r, 15.08m,0000000078Hz,0000005897c,0000000.013s, 019.3C,00002191
2021-08-26 06:02:49 r, 13.22m,0000000434Hz,0000000000c,0000000.000s, 019.6C,00002191
2021-08-26 06:12:51 r, 11.20m,0000002794Hz,0000000000c,0000000.000s, 019.6C,00002191
2021-08-26 06:22:50 r, 09.46m,0000013877Hz,0000000000c,0000000.000s, 019.6C,00002191
2021-08-26 06:32:49 r, 07.96m,0000055085Hz,0000000000c,0000000.000s, 019.9C,00002191
2021-08-26 06:42:50 r, 07.24m,0000107522Hz,0000000000c,0000000.000s, 020.3C,00002191
2021-08-26 06:52:52 r, 06.53m,0000206675Hz,0000000000c,0000000.000s, 020.6C,00002191
2021-08-26 07:02:50 r, 05.89m,0000371320Hz,0000000000c,0000000.000s, 020.6C,00002191
2021-08-26 07:12:52 r, 00.00m,0000548986Hz,0000000000c,0000000.000s, 020.9C,00002191
2021-08-26 07:22:50 r, 00.00m,0000597395Hz,0000000000c,0000000.000s, 020.9C,00002191
2021-08-26 07:32:50 r, 00.00m,0000597313Hz,0000000000c,0000000.000s, 021.2C,00002191
2021-08-26 07:42:52 r, 00.00m,0000597372Hz,0000000000c,0000000.000s, 021.9C,00002191
2021-08-26 07:52:50 r, 00.00m,0000597324Hz,0000000000c,0000000.000s, 021.9C,00002191
2021-08-26 08:02:50 r, 00.00m,0000597294Hz,0000000000c,0000000.000s, 022.5C,00002191
2021-08-26 08:12:50 r, 00.00m,0000597160Hz,0000000000c,0000000.000s, 022.8C,00002191
2021-08-26 08:22:51 r, 00.00m,0000597123Hz,0000000000c,0000000.000s, 023.2C,00002191
2021-08-26 08:32:49 r, 00.00m,0000597051Hz,0000000000c,0000000.000s, 023.5C,00002191
2021-08-26 08:42:51 r, 00.00m,0000597017Hz,0000000000c,0000000.000s, 024.4C,00002191
2021-08-26 08:52:50 r, 00.00m,0000596806Hz,0000000000c,0000000.000s, 025.4C,00002191
2021-08-26 09:02:50 r, 00.00m,0000596764Hz,0000000000c,0000000.000s, 026.1C,00002191
2021-08-26 09:12:52 r, 00.00m,0000596675Hz,0000000000c,0000000.000s, 027.3C,00002191
2021-08-26 09:22:50 r, 00.00m,0000596639Hz,0000000000c,0000000.000s, 028.0C,00002191
2021-08-26 09:32:50 r, 00.00m,0000596564Hz,0000000000c,0000000.000s, 028.3C,00002191
2021-08-26 09:42:52 r, 00.00m,0000596496Hz,0000000000c,0000000.000s, 029.0C,00002191
2021-08-26 09:52:50 r, 00.00m,0000596443Hz,0000000000c,0000000.000s, 029.6C,00002191
2021-08-26 10:02:50 r, 00.00m,0000596325Hz,0000000000c,0000000.000s, 030.2C,00002191
2021-08-26 10:12:50 r, 00.00m,0000596316Hz,0000000000c,0000000.000s, 030.6C,00002191
2021-08-26 10:22:51 r, 00.00m,0000596277Hz,0000000000c,0000000.000s, 030.6C,00002191
2021-08-26 10:32:50 r, 00.00m,0000596257Hz,0000000000c,0000000.000s, 030.9C,00002191
2021-08-26 10:42:50 r, 00.00m,0000596168Hz,0000000000c,0000000.000s, 030.9C,00002191
2021-08-26 10:52:52 r, 00.00m,0000596183Hz,0000000000c,0000000.000s, 031.2C,00002191
2021-08-26 11:02:50 r, 00.00m,0000596014Hz,0000000000c,0000000.000s, 032.8C,00002191
2021-08-26 11:12:50 r, 00.00m,0000595691Hz,0000000000c,0000000.000s, 034.4C,00002191
2021-08-26 11:22:52 r, 00.00m,0000595342Hz,0000000000c,0000000.000s, 037.0C,00002191
2021-08-26 11:32:50 r, 00.00m,0000595196Hz,0000000000c,0000000.000s, 038.6C,00002191
2021-08-26 11:42:50 r, 00.00m,0000595212Hz,0000000000c,0000000.000s, 038.0C,00002191
2021-08-26 11:52:50 r, 00.00m,0000595686Hz,0000000000c,0000000.000s, 035.7C,00002191
2021-08-26 12:02:50 r, 00.00m,0000595759Hz,0000000000c,0000000.000s, 034.8C,00002191
2021-08-26 12:12:50 r, 00.00m,0000595707Hz,0000000000c,0000000.000s, 034.4C,00002191
2021-08-26 12:22:50 r, 00.00m,0000595716Hz,0000000000c,0000000.000s, 034.8C,00002191
2021-08-26 12:32:50 r, 00.00m,0000595788Hz,0000000000c,0000000.000s, 034.1C,00002191
2021-08-26 12:42:50 r, 00.00m,0000595766Hz,0000000000c,0000000.000s, 034.1C,00002191
2021-08-26 12:52:52 r, 00.00m,0000595699Hz,0000000000c,0000000.000s, 034.1C,00002191
2021-08-26 13:02:50 r, 00.00m,0000595689Hz,0000000000c,0000000.000s, 034.4C,00002191
2021-08-26 13:12:50 r, 00.00m,0000595697Hz,0000000000c,0000000.000s, 034.4C,00002191
2021-08-26 13:22:52 r, 00.00m,0000595470Hz,0000000000c,0000000.000s, 036.0C,00002191
2021-08-26 13:32:50 r, 00.00m,0000595231Hz,0000000000c,0000000.000s, 037.3C,00002191
2021-08-26 13:42:50 r, 00.00m,0000595314Hz,0000000000c,0000000.000s, 037.0C,00002191
2021-08-26 13:52:50 r, 00.00m,0000595241Hz,0000000000c,0000000.000s, 037.0C,00002191
2021-08-26 14:02:50 r, 00.00m,0000595376Hz,0000000000c,0000000.000s, 036.4C,00002191
2021-08-26 14:12:50 r, 00.00m,0000595321Hz,0000000000c,0000000.000s, 036.7C,00002191
2021-08-26 14:22:51 r, 00.00m,0000595199Hz,0000000000c,0000000.000s, 038.0C,00002191
2021-08-26 14:32:50 r, 00.00m,0000595034Hz,0000000000c,0000000.000s, 039.0C,00002191
2021-08-26 14:42:50 r, 00.00m,0000594903Hz,0000000000c,0000000.000s, 039.6C,00002191
2021-08-26 14:52:51 r, 00.00m,0000594729Hz,0000000000c,0000000.000s, 041.2C,00002191
2021-08-26 15:02:50 r, 00.00m,0000594711Hz,0000000000c,0000000.000s, 041.5C,00002191
2021-08-26 15:12:50 r, 00.00m,0000594589Hz,0000000000c,0000000.000s, 042.2C,00002191
2021-08-26 15:22:52 r, 00.00m,0000594630Hz,0000000000c,0000000.000s, 041.9C,00002191
2021-08-26 15:32:51 r, 00.00m,0000595000Hz,0000000000c,0000000.000s, 040.6C,00002191
2021-08-26 15:42:50 r, 00.00m,0000595175Hz,0000000000c,0000000.000s, 039.3C,00002191
2021-08-26 15:52:50 r, 00.00m,0000595201Hz,0000000000c,0000000.000s, 038.3C,00002191
2021-08-26 16:02:51 r, 00.00m,0000595310Hz,0000000000c,0000000.000s, 037.3C,00002191
2021-08-26 16:12:50 r, 00.00m,0000595227Hz,0000000000c,0000000.000s, 037.3C,00002191
2021-08-26 16:22:51 r, 00.00m,0000595200Hz,0000000000c,0000000.000s, 038.6C,00002191
2021-08-26 16:32:51 r, 00.00m,0000595145Hz,0000000000c,0000000.000s, 039.6C,00002191
2021-08-26 16:42:50 r, 00.00m,0000595204Hz,0000000000c,0000000.000s, 038.6C,00002191
2021-08-26 16:52:51 r, 00.00m,0000595303Hz,0000000000c,0000000.000s, 037.0C,00002191
2021-08-26 17:02:52 r, 00.00m,0000595603Hz,0000000000c,0000000.000s, 035.4C,00002191
2021-08-26 17:12:50 r, 00.00m,0000595763Hz,0000000000c,0000000.000s, 034.4C,00002191
2021-08-26 17:22:52 r, 00.00m,0000595791Hz,0000000000c,0000000.000s, 033.8C,00002191
2021-08-26 17:32:51 r, 00.00m,0000595832Hz,0000000000c,0000000.000s, 033.8C,00002191
2021-08-26 17:42:50 r, 00.00m,0000595770Hz,0000000000c,0000000.000s, 034.1C,00002191
2021-08-26 17:52:52 r, 00.00m,0000595584Hz,0000000000c,0000000.000s, 035.7C,00002191
2021-08-26 18:02:51 r, 00.00m,0000595614Hz,0000000000c,0000000.000s, 035.4C,00002191
2021-08-26 18:12:50 r, 00.00m,0000595630Hz,0000000000c,0000000.000s, 034.8C,00002191
2021-08-26 18:22:51 r, 00.00m,0000595764Hz,0000000000c,0000000.000s, 034.1C,00002191
2021-08-26 18:32:51 r, 00.00m,0000595789Hz,0000000000c,0000000.000s, 034.1C,00002191
2021-08-26 18:42:50 r, 00.00m,0000595803Hz,0000000000c,0000000.000s, 034.1C,00002191
2021-08-26 18:52:51 r, 00.00m,0000595932Hz,0000000000c,0000000.000s, 033.1C,00002191
2021-08-26 19:02:51 r, 00.00m,0000596067Hz,0000000000c,0000000.000s, 032.2C,00002191
2021-08-26 19:12:50 r, 00.00m,0000596077Hz,0000000000c,0000000.000s, 031.9C,00002191
2021-08-26 19:22:52 r, 00.00m,0000596113Hz,0000000000c,0000000.000s, 031.5C,00002191
2021-08-26 19:32:51 r, 00.00m,0000596200Hz,0000000000c,0000000.000s, 031.9C,00002191
2021-08-26 19:42:50 r, 00.00m,0000596498Hz,0000000000c,0000000.000s, 031.5C,00002191
2021-08-26 19:52:52 r, 00.00m,0000438324Hz,0000000000c,0000000.000s, 030.9C,00002191
2021-08-26 20:02:51 r, 06.50m,0000212405Hz,0000000000c,0000000.000s, 030.2C,00002191
2021-08-26 20:12:50 r, 07.17m,0000114684Hz,0000000000c,0000000.000s, 029.3C,00002191
2021-08-26 20:22:51 r, 07.99m,0000053968Hz,0000000000c,0000000.000s, 028.6C,00002191
2021-08-26 20:32:52 r, 09.10m,0000019343Hz,0000000000c,0000000.000s, 028.0C,00002191
2021-08-26 20:42:50 r, 10.72m,0000004357Hz,0000000000c,0000000.000s, 027.3C,00002191
2021-08-26 20:52:51 r, 12.68m,0000000715Hz,0000000000c,0000000.000s, 027.0C,00002191
2021-08-26 21:02:51 r, 14.72m,0000000109Hz,0000004255c,0000000.009s, 026.7C,00002191
2021-08-26 21:12:50 r, 16.63m,0000000019Hz,0000024498c,0000000.053s, 026.4C,00002191
2021-08-26 21:22:51 r, 18.08m,0000000005Hz,0000093475c,0000000.203s, 026.1C,00002191
2021-08-26 21:32:52 r, 19.20m,0000000002Hz,0000262094c,0000000.569s, 025.7C,00002191
2021-08-26 21:42:50 r, 19.95m,0000000000Hz,0000523521c,0000001.136s, 025.4C,00002191
2021-08-26 21:52:53 r, 20.35m,0000000001Hz,0000745749c,0000001.618s, 025.4C,00002191
2021-08-26 22:02:51 r, 20.50m,0000000001Hz,0000855333c,0000001.856s, 025.1C,00002191
2021-08-26 22:12:50 r, 20.54m,0000000000Hz,0000890600c,0000001.933s, 025.1C,00002191
2021-08-26 22:22:52 r, 20.52m,0000000000Hz,0000875319c,0000001.900s, 025.1C,00002191
2021-08-26 22:32:51 r, 20.49m,0000000000Hz,0000851501c,0000001.848s, 024.8C,00002191
2021-08-26 22:42:50 r, 20.36m,0000000001Hz,0000750380c,0000001.628s, 024.8C,00002191
2021-08-26 22:52:51 r, 20.12m,0000000000Hz,0000614240c,0000001.333s, 024.8C,00002191
2021-08-26 23:02:51 r, 19.99m,0000000001Hz,0000543038c,0000001.178s, 024.8C,00002191
2021-08-26 23:12:50 r, 19.78m,0000000001Hz,0000448358c,0000000.973s, 024.8C,00002191
2021-08-26 23:22:52 r, 19.70m,0000000001Hz,0000414499c,0000000.900s, 025.1C,00002191
2021-08-26 23:32:51 r, 19.93m,0000000001Hz,0000511867c,0000001.111s, 025.1C,00002191
2021-08-26 23:42:50 r, 19.87m,0000000001Hz,0000483643c,0000001.050s, 025.1C,00002191
2021-08-26 23:52:53 r, 19.78m,0000000001Hz,0000448133c,0000000.973s, 024.8C,00002191
